Weather in Okhteurye

Russia / Khanty-Mansi Autonomous Okrug — Yugra     60°58′32″N   78°59′03″E
temp.,
°C
wind,
m/s
gust,
m/s
humid.,
%
clouds,
%
prec.,
mm/h
press.,
hPa
HPBL,
m
10 may, mon
mon1023:00+4ene2674100 0.0 1028194
02:00+3ene22815 0.0 102816
05:00+4ne24775 0.0 1029135
08:00+8ne345541 0.0 10301085
11:00+10ne344918 0.0 10301247
14:00+12ne45444 0.0 10291365
17:00+12ne56441 0.0 10291341
20:00+7ne38640 0.0 1029256
11 may, tue
tue1123:00+4e24785 0.0 102983
02:00+2ne24845 0.0 102980
05:00+3ne25775 0.0 1030186
08:00+7ene34565 0.0 1029866
11:00+11ene23425 0.0 10281066
14:00+13ne33365 0.0 10261199
17:00+13ene22375 0.0 1026967
20:00+9e11545 0.0 102510
12 may, wed
wed1223:00+6sse226232 0.0 102329
02:00+5sse3873100 0.0 1022146
05:00+6s3966100 0.0 1020222
08:00+10ssw3554100 0.0 1019405
11:00+7wnw2388100 1.3 1019234
14:00+7nnw5786100 0.6 1020519
17:00+7nnw478095 0.6 1021694
20:00+6n31083100 0.0 1021607
13 may, thu
thu1323:00+4nnw2693100 0.0 1022129
02:00+2nnw238864 0.0 102249
05:00+4n14700 0.0 1022117
08:00+10nw124934 0.0 1022547
11:00+12w2339100 0.0 10201543
14:00+13w4538100 0.0 10181902
17:00+10wsw3770100 0.6 10161259
20:00+8wnw51089100 0.9 10151019
14 may, fri
fri1423:00+6nnw71287100 0.9 10181042
02:00+2nnw611675 0.0 10191024
05:00+2nnw510665 0.0 1021891
08:00+5nnw69498 0.0 10221375
11:00+8nw583745 0.0 10211817
14:00+9nw4633100 0.0 10201781
17:00+8nnw3639100 0.0 10191645
20:00+5w2258100 0.1 1018501